| time (UTC) | temp F | wind direction | speed MPH | gust MPH | rain 1hr in | rain 24hr in | rain mn in | humidity % | barometer mb |
| 20260904141515 | 65 | 204 | 1.0 | 2.0 | 0.00 | 0.03 | 0.03 | 96 | 1014.9 |
| 20260904140957 | 65 | 92 | 0.0 | 4.0 | 0.00 | 0.03 | 0.03 | 96 | 1014.8 |
| 20260904140458 | 65 | 164 | 1.0 | 4.0 | 0.00 | 0.03 | 0.03 | 96 | 1014.7 |
| 20260904135959 | 65 | 206 | 0.0 | 4.0 | 0.00 | 0.03 | 0.03 | 96 | 1014.5 |
| 20260904135454 | 65 | 186 | 1.0 | 4.0 | 0.00 | 0.03 | 0.03 | 97 | 1014.4 |
| 20260904135221 | 65 | 197 | 1.0 | 5.0 | 0.00 | 0.03 | 0.03 | 97 | 1014.6 |
| 20260904134455 | 64 | 154 | 3.0 | 5.0 | 0.00 | 0.03 | 0.03 | 97 | 1014.5 |
| 20260904134003 | 64 | 145 | 1.0 | 6.0 | 0.00 | 0.03 | 0.03 | 97 | 1014.2 |
| 20260904133455 | 64 | 151 | 2.0 | 6.0 | 0.00 | 0.03 | 0.03 | 97 | 1014.1 |
| 20260904133007 | 64 | 161 | 2.0 | 4.0 | 0.00 | 0.03 | 0.03 | 97 | 1014.1 |
| 20260904132454 | 64 | 157 | 2.0 | 4.0 | 0.00 | 0.03 | 0.03 | 97 | 1014.3 |
| 20260904131951 | 64 | 140 | 1.0 | 2.0 | 0.00 | 0.03 | 0.03 | 97 | 1014.3 |
| 20260904131714 | 64 | 92 | 0.0 | 1.0 | 0.00 | 0.03 | 0.03 | 97 | 1014.5 |
| 20260904130952 | 64 | 68 | 0.0 | 0.0 | 0.00 | 0.03 | 0.03 | 97 | 1014.5 |
| 20260904130451 | 64 | 63 | 0.0 | 3.0 | 0.00 | 0.03 | 0.03 | 97 | 1014.8 |
| 20260904125947 | 64 | 63 | 0.0 | 3.0 | 0.01 | 0.02 | 0.03 | 97 | 1014.6 |
| 20260904125447 | 64 | 66 | 2.0 | 3.0 | 0.01 | 0.02 | 0.03 | 97 | 1014.2 |
| 20260904124943 | 63 | 158 | 0.0 | 3.0 | 0.02 | 0.02 | 0.03 | 97 | 1014.1 |
| 20260904124446 | 63 | 178 | 1.0 | 3.0 | 0.03 | 0.02 | 0.03 | 97 | 1014.1 |
| 20260904123945 | 63 | 168 | 1.0 | 3.0 | 0.03 | 0.02 | 0.03 | 97 | 1014.1 |
| 20260904123443 | 63 | 178 | 0.0 | 2.0 | 0.03 | 0.02 | 0.03 | 97 | 1013.9 |
| 20260904122943 | 62 | 175 | 0.0 | 2.0 | 0.03 | 0.02 | 0.03 | 97 | 1014.0 |
| 20260904122442 | 62 | 210 | 1.0 | 2.0 | 0.03 | 0.02 | 0.03 | 97 | 1014.1 |
| 20260904122213 | 62 | 210 | 0.0 | 3.0 | 0.03 | 0.02 | 0.03 | 97 | 1014.1 |
| 20260904120942 | 61 | 188 | 2.0 | 4.0 | 0.03 | 0.02 | 0.03 | 96 | 1014.2 |
| 20260904120440 | 62 | 175 | 3.0 | 4.0 | 0.03 | 0.02 | 0.03 | 96 | 1014.4 |
| 20260904115942 | 62 | 212 | 0.0 | 3.0 | 0.02 | 0.00 | 0.02 | 96 | 1014.7 |
| 20260904115441 | 61 | 251 | 2.0 | 3.0 | 0.02 | 0.00 | 0.02 | 97 | 1014.8 |
| 20260904114941 | 61 | 264 | 2.0 | 4.0 | 0.01 | 0.00 | 0.00 | 97 | 1014.6 |
| 20260904114440 | 61 | 264 | 2.0 | 4.0 | 0.00 | 0.00 | 0.00 | 97 | 1014.7 |
| 20260904113940 | 61 | 285 | 2.0 | 4.0 | 0.00 | 0.00 | 0.00 | 97 | 1014.7 |
| 20260904113441 | 61 | 282 | 1.0 | 3.0 | 0.00 | 0.00 | 0.00 | 97 | 1014.6 |
| 20260904112941 | 60 | 310 | 1.0 | 2.0 | 0.00 | 0.00 | 0.00 | 97 | 1014.4 |
| 20260904112441 | 60 | 282 | 1.0 | 2.0 | 0.00 | 0.00 | 0.00 | 97 | 1014.2 |
| 20260904111941 | 60 | 303 | 0.0 | 2.0 | 0.00 | 0.00 | 0.00 | 97 | 1014.2 |
| 20260904111436 | 59 | 307 | 1.0 | 2.0 | 0.00 | 0.00 | 0.00 | 97 | 1014.2 |
| 20260904110936 | 59 | 302 | 1.0 | 2.0 | 0.00 | 0.00 | 0.00 | 97 | 1014.2 |
| 20260904105934 | 58 | 285 | 0.0 | 1.0 | 0.00 | 0.00 | 0.00 | 96 | 1014.1 |
| 20260904105434 | 58 | 286 | 0.0 | 1.0 | 0.00 | 0.00 | 0.00 | 96 | 1014.1 |
| 20260904104934 | 58 | 248 | 0.0 | 0.0 | 0.00 | 0.00 | 0.00 | 96 | 1013.8 |
| 20260904104435 | 58 | 248 | 0.0 | 1.0 | 0.00 | 0.00 | 0.00 | 96 | 1013.7 |
| 20260904103934 | 58 | 248 | 0.0 | 2.0 | 0.00 | 0.00 | 0.00 | 96 | 1013.8 |
| 20260904103434 | 58 | 247 | 1.0 | 2.0 | 0.00 | 0.00 | 0.00 | 96 | 1013.8 |
| 20260904102933 | 58 | 247 | 1.0 | 3.0 | 0.00 | 0.00 | 0.00 | 96 | 1013.9 |
| 20260904102433 | 58 | 250 | 1.0 | 3.0 | 0.00 | 0.00 | 0.00 | 96 | 1013.9 |
| 20260904101933 | 58 | 245 | 1.0 | 3.0 | 0.00 | 0.00 | 0.00 | 96 | 1014.1 |
| 20260904101433 | 58 | 257 | 1.0 | 3.0 | 0.00 | 0.00 | 0.00 | 96 | 1014.0 |
| 20260904101205 | 58 | 250 | 1.0 | 2.0 | 0.00 | 0.00 | 0.00 | 96 | 1013.8 |
| 20260904100432 | 58 | 257 | 1.0 | 2.0 | 0.00 | 0.00 | 0.00 | 96 | 1013.9 |
| 20260904095931 | 58 | 261 | 1.0 | 2.0 | 0.00 | 0.00 | 0.00 | 96 | 1013.9 |
| 20260904095431 | 58 | 258 | 1.0 | 2.0 | 0.00 | 0.00 | 0.00 | 96 | 1013.7 |
| 20260904094932 | 58 | 251 | 1.0 | 3.0 | 0.00 | 0.00 | 0.00 | 95 | 1013.8 |
| 20260904094430 | 58 | 262 | 2.0 | 3.0 | 0.00 | 0.00 | 0.00 | 95 | 1013.7 |
| 20260904093931 | 58 | 243 | 0.0 | 2.0 | 0.00 | 0.00 | 0.00 | 95 | 1013.4 |
| 20260904093430 | 58 | 248 | 0.0 | 2.0 | 0.00 | 0.00 | 0.00 | 95 | 1013.6 |
| 20260904093204 | 58 | 250 | 1.0 | 3.0 | 0.00 | 0.00 | 0.00 | 95 | 1013.8 |
| 20260904092431 | 58 | 267 | 1.0 | 3.0 | 0.00 | 0.00 | 0.00 | 95 | 1013.7 |
| 20260904091930 | 58 | 261 | 2.0 | 3.0 | 0.00 | 0.00 | 0.00 | 95 | 1013.7 |
| 20260904091431 | 58 | 262 | 0.0 | 2.0 | 0.00 | 0.00 | 0.00 | 95 | 1013.4 |
| 20260904090931 | 58 | 265 | 0.0 | 2.0 | 0.00 | 0.00 | 0.00 | 95 | 1013.6 |
| 20260904090430 | 58 | 262 | 1.0 | 2.0 | 0.00 | 0.00 | 0.00 | 95 | 1013.7 |
| 20260904085931 | 58 | 272 | 1.0 | 2.0 | 0.00 | 0.00 | 0.00 | 95 | 1013.5 |
| 20260904085431 | 58 | 259 | 1.0 | 2.0 | 0.00 | 0.00 | 0.00 | 95 | 1013.3 |
| 20260904084930 | 58 | 264 | 0.0 | 2.0 | 0.00 | 0.00 | 0.00 | 95 | 1013.3 |
| 20260904084433 | 58 | 264 | 1.0 | 2.0 | 0.00 | 0.00 | 0.00 | 95 | 1013.3 |
| 20260904083931 | 58 | 264 | 0.0 | 1.0 | 0.00 | 0.00 | 0.00 | 95 | 1013.3 |
| 20260904083431 | 58 | 265 | 1.0 | 2.0 | 0.00 | 0.00 | 0.00 | 95 | 1013.6 |
| 20260904082930 | 58 | 257 | 1.0 | 2.0 | 0.00 | 0.00 | 0.00 | 95 | 1013.6 |
| 20260904082657 | 58 | 259 | 1.0 | 2.0 | 0.00 | 0.00 | 0.00 | 95 | 1013.5 |
| 20260904081929 | 59 | 258 | 0.0 | 1.0 | 0.00 | 0.00 | 0.00 | 94 | 1013.4 |
| 20260904081428 | 59 | 258 | 0.0 | 1.0 | 0.00 | 0.00 | 0.00 | 94 | 1013.3 |
| 20260904081152 | 59 | 261 | 0.0 | 1.0 | 0.00 | 0.00 | 0.00 | 94 | 1013.5 |
| 20260904080428 | 59 | 262 | 1.0 | 1.0 | 0.00 | 0.00 | 0.00 | 94 | 1013.5 |
| 20260904075928 | 59 | 272 | 0.0 | 2.0 | 0.00 | 0.00 | 0.00 | 94 | 1013.7 |
| 20260904075425 | 59 | 272 | 1.0 | 2.0 | 0.00 | 0.00 | 0.00 | 94 | 1013.9 |
| 20260904074926 | 59 | 274 | 1.0 | 2.0 | 0.00 | 0.00 | 0.00 | 94 | 1014.0 |
| 20260904074424 | 60 | 251 | 1.0 | 1.0 | 0.00 | 0.00 | 0.00 | 94 | 1013.7 |
| 20260904073926 | 60 | 251 | 0.0 | 1.0 | 0.00 | 0.00 | 0.00 | 93 | 1013.4 |
| 20260904073427 | 60 | 248 | 0.0 | 1.0 | 0.00 | 0.00 | 0.00 | 93 | 1013.3 |
| 20260904072925 | 60 | 276 | 0.0 | 1.0 | 0.00 | 0.00 | 0.00 | 93 | 1013.4 |
| 20260904072421 | 60 | 276 | 1.0 | 1.0 | 0.00 | 0.00 | 0.00 | 93 | 1013.5 |
| 20260904071921 | 60 | 289 | 0.0 | 1.0 | 0.00 | 0.00 | 0.00 | 93 | 1013.3 |
| 20260904071420 | 61 | 289 | 0.0 | 1.0 | 0.00 | 0.00 | 0.00 | 93 | 1013.4 |
| 20260904070919 | 61 | 21 | 0.0 | 0.0 | 0.00 | 0.00 | 0.00 | 93 | 1013.4 |
| 20260904070420 | 61 | 25 | 0.0 | 0.0 | 0.00 | 0.00 | 0.00 | 93 | 1013.5 |
| 20260904065918 | 61 | 303 | 0.0 | 0.0 | 0.00 | 0.00 | 0.00 | 93 | 1013.5 |
| 20260904065644 | 62 | 286 | 0.0 | 1.0 | 0.00 | 0.00 | 0.00 | 93 | 1013.7 |
| 20260904065137 | 62 | 286 | 0.0 | 1.0 | 0.00 | 0.00 | 0.00 | 93 | 1013.8 |
| 20260904064413 | 62 | 48 | 0.0 | 3.0 | 0.00 | 0.00 | 0.00 | 93 | 1013.8 |
| 20260904063913 | 62 | 52 | 1.0 | 3.0 | 0.00 | 0.00 | 0.00 | 93 | 1014.0 |
| 20260904063414 | 61 | 51 | 1.0 | 3.0 | 0.00 | 0.00 | 0.00 | 93 | 1014.0 |
| 20260904063141 | 61 | 37 | 2.0 | 3.0 | 0.00 | 0.00 | 0.00 | 93 | 1014.1 |
| 20260904062413 | 61 | 1 | 1.0 | 2.0 | 0.00 | 0.00 | 0.00 | 92 | 1014.1 |
| 20260904061136 | 62 | 236 | 2.0 | 3.0 | 0.00 | 0.00 | 0.00 | 92 | 1013.8 |
| 20260904060407 | 62 | 250 | 2.0 | 3.0 | 0.00 | 0.00 | 0.00 | 92 | 1014.0 |
| 20260904055906 | 62 | 220 | 1.0 | 4.0 | 0.00 | 0.00 | 0.00 | 92 | 1014.1 |
| 20260904055407 | 62 | 237 | 1.0 | 4.0 | 0.00 | 0.00 | 0.00 | 92 | 1014.0 |
| 20260904054904 | 62 | 255 | 1.0 | 3.0 | 0.00 | 0.00 | 0.00 | 92 | 1014.2 |
| 20260904054635 | 62 | 254 | 2.0 | 3.0 | 0.00 | 0.00 | 0.00 | 92 | 1014.1 |
| 20260904053905 | 62 | 261 | 2.0 | 4.0 | 0.00 | 0.00 | 0.00 | 92 | 1014.2 |
| 20260904053406 | 62 | 262 | 2.0 | 4.0 | 0.00 | 0.00 | 0.00 | 91 | 1014.2 |
| 20260904052911 | 62 | 254 | 2.0 | 3.0 | 0.00 | 0.00 | 0.00 | 91 | 1014.1 |
| 20260904052406 | 62 | 259 | 1.0 | 3.0 | 0.00 | 0.00 | 0.00 | 91 | 1014.1 |
| 20260904051903 | 62 | 237 | 1.0 | 3.0 | 0.00 | 0.00 | 0.00 | 91 | 1014.2 |
| 20260904051403 | 62 | 271 | 2.0 | 4.0 | 0.00 | 0.00 | 0.00 | 91 | 1014.3 |
| 20260904050903 | 62 | 247 | 2.0 | 4.0 | 0.00 | 0.00 | 0.00 | 91 | 1014.2 |
| 20260904050403 | 62 | 237 | 2.0 | 4.0 | 0.00 | 0.00 | 0.00 | 90 | 1014.2 |
| 20260904045906 | 62 | 243 | 1.0 | 4.0 | 0.00 | 0.00 | 0.00 | 90 | 1014.3 |
| 20260904045404 | 63 | 248 | 2.0 | 4.0 | 0.00 | 0.00 | 0.00 | 90 | 1014.3 |
| 20260904044902 | 63 | 262 | 2.0 | 4.0 | 0.00 | 0.00 | 0.00 | 90 | 1014.3 |
| 20260904044403 | 63 | 259 | 2.0 | 3.0 | 0.00 | 0.00 | 0.00 | 90 | 1014.3 |
| 20260904043902 | 63 | 259 | 2.0 | 3.0 | 0.00 | 0.00 | 0.00 | 89 | 1014.2 |
| 20260904043640 | 63 | 259 | 2.0 | 3.0 | 0.00 | 0.00 | 0.00 | 89 | 1014.1 |
| 20260904042901 | 63 | 251 | 2.0 | 4.0 | 0.00 | 0.00 | 0.00 | 89 | 1014.1 |
| 20260904042635 | 63 | 257 | 2.0 | 4.0 | 0.00 | 0.00 | 0.00 | 89 | 1014.0 |
| 20260904042127 | 63 | 257 | 1.0 | 4.0 | 0.00 | 0.00 | 0.00 | 89 | 1014.0 |
| 20260904041405 | 63 | 251 | 2.0 | 5.0 | 0.00 | 0.00 | 0.00 | 89 | 1014.1 |
| 20260904040902 | 63 | 267 | 3.0 | 5.0 | 0.00 | 0.00 | 0.00 | 88 | 1014.1 |
| 20260904040405 | 63 | 252 | 2.0 | 4.0 | 0.00 | 0.00 | 0.00 | 88 | 1014.0 |
| 20260904040127 | 64 | 252 | 2.0 | 4.0 | 0.00 | 0.00 | 0.00 | 88 | 1014.0 |
| 20260904035402 | 64 | 255 | 2.0 | 5.0 | 0.00 | 0.00 | 0.00 | 88 | 1014.0 |
| 20260904035132 | 63 | 252 | 3.0 | 5.0 | 0.00 | 0.00 | 0.00 | 87 | 1014.1 |
| 20260904034404 | 63 | 245 | 2.0 | 5.0 | 0.00 | 0.00 | 0.00 | 87 | 1013.9 |
| 20260904033857 | 63 | 264 | 2.0 | 4.0 | 0.00 | 0.00 | 0.00 | 86 | 1014.0 |
| 20260904033355 | 63 | 250 | 3.0 | 5.0 | 0.00 | 0.00 | 0.00 | 86 | 1013.9 |
| 20260904032854 | 63 | 240 | 3.0 | 5.0 | 0.00 | 0.00 | 0.00 | 84 | 1013.9 |
| 20260904032356 | 63 | 248 | 2.0 | 4.0 | 0.00 | 0.00 | 0.00 | 83 | 1014.0 |
| 20260904032123 | 63 | 257 | 2.0 | 4.0 | 0.00 | 0.00 | 0.00 | 83 | 1014.0 |
| 20260904031626 | 63 | 240 | 2.0 | 4.0 | 0.00 | 0.00 | 0.00 | 82 | 1013.9 |
| 20260904030854 | 63 | 245 | 2.0 | 4.0 | 0.00 | 0.00 | 0.00 | 82 | 1013.9 |
| 20260904030627 | 63 | 250 | 2.0 | 5.0 | 0.00 | 0.00 | 0.00 | 81 | 1013.8 |
| 20260904025854 | 63 | 247 | 2.0 | 5.0 | 0.00 | 0.00 | 0.00 | 81 | 1013.9 |
| 20260904025619 | 63 | 244 | 2.0 | 5.0 | 0.00 | 0.00 | 0.00 | 81 | 1013.7 |
| 20260904024852 | 63 | 252 | 2.0 | 4.0 | 0.00 | 0.00 | 0.00 | 81 | 1013.9 |
| 20260904024352 | 63 | 237 | 2.0 | 4.0 | 0.00 | 0.00 | 0.00 | 81 | 1013.8 |
| 20260904023851 | 63 | 245 | 2.0 | 5.0 | 0.00 | 0.00 | 0.00 | 81 | 1014.0 |
| 20260904023349 | 63 | 240 | 3.0 | 5.0 | 0.00 | 0.00 | 0.00 | 81 | 1014.0 |
| 20260904022848 | 63 | 226 | 3.0 | 4.0 | 0.00 | 0.00 | 0.00 | 81 | 1014.0 |
| 20260904022349 | 63 | 254 | 2.0 | 4.0 | 0.00 | 0.00 | 0.00 | 81 | 1013.9 |
| 20260904021848 | 64 | 255 | 2.0 | 4.0 | 0.00 | 0.00 | 0.00 | 81 | 1013.9 |
| 20260904021348 | 64 | 250 | 2.0 | 4.0 | 0.00 | 0.00 | 0.00 | 81 | 1014.0 |
| 20260904020848 | 64 | 240 | 2.0 | 3.0 | 0.00 | 0.00 | 0.00 | 81 | 1013.8 |
| 20260904020347 | 64 | 241 | 2.0 | 4.0 | 0.00 | 0.00 | 0.00 | 81 | 1013.8 |
| 20260904015849 | 64 | 248 | 2.0 | 4.0 | 0.00 | 0.00 | 0.00 | 81 | 1013.6 |
| 20260904015345 | 64 | 250 | 2.0 | 4.0 | 0.00 | 0.00 | 0.00 | 81 | 1013.5 |
| 20260904014844 | 64 | 252 | 2.0 | 3.0 | 0.00 | 0.00 | 0.00 | 81 | 1013.5 |
| 20260904014344 | 64 | 259 | 2.0 | 3.0 | 0.00 | 0.00 | 0.00 | 82 | 1013.4 |
| 20260904013844 | 64 | 254 | 2.0 | 4.0 | 0.00 | 0.00 | 0.00 | 82 | 1013.4 |
| 20260904013343 | 64 | 252 | 2.0 | 4.0 | 0.00 | 0.00 | 0.00 | 83 | 1013.5 |
| 20260904013111 | 64 | 252 | 2.0 | 3.0 | 0.00 | 0.00 | 0.00 | 83 | 1013.5 |
| 20260904012344 | 64 | 250 | 2.0 | 3.0 | 0.00 | 0.00 | 0.00 | 83 | 1013.5 |
| 20260904011843 | 65 | 252 | 2.0 | 3.0 | 0.00 | 0.00 | 0.00 | 83 | 1013.4 |
| 20260904011344 | 65 | 248 | 1.0 | 3.0 | 0.00 | 0.00 | 0.00 | 83 | 1013.5 |
| 20260904010842 | 65 | 244 | 1.0 | 2.0 | 0.00 | 0.00 | 0.00 | 83 | 1013.4 |
| 20260904010343 | 65 | 233 | 1.0 | 2.0 | 0.00 | 0.00 | 0.00 | 82 | 1013.4 |
| 20260904005843 | 65 | 236 | 0.0 | 2.0 | 0.00 | 0.00 | 0.00 | 81 | 1013.4 |
| 20260904005343 | 66 | 238 | 1.0 | 2.0 | 0.00 | 0.00 | 0.00 | 81 | 1013.4 |
| 20260904004842 | 66 | 247 | 0.0 | 2.0 | 0.00 | 0.00 | 0.00 | 80 | 1013.3 |
| 20260904004342 | 66 | 250 | 1.0 | 2.0 | 0.00 | 0.00 | 0.00 | 80 | 1013.2 |
| 20260904003842 | 66 | 251 | 1.0 | 2.0 | 0.00 | 0.00 | 0.00 | 80 | 1013.1 |
| 20260904003343 | 67 | 250 | 1.0 | 2.0 | 0.00 | 0.00 | 0.00 | 79 | 1013.1 |
| 20260904002842 | 67 | 248 | 0.0 | 0.0 | 0.00 | 0.00 | 0.00 | 78 | 1013.1 |
| 20260904002341 | 67 | 254 | 0.0 | 0.0 | 0.00 | 0.00 | 0.00 | 77 | 1013.0 |
| 20260904001841 | 68 | 257 | 0.0 | 2.0 | 0.00 | 0.00 | 0.00 | 77 | 1013.0 |
| 20260904001342 | 68 | 257 | 1.0 | 2.0 | 0.00 | 0.00 | 0.00 | 76 | 1013.1 |
| 20260904000841 | 68 | 248 | 1.0 | 2.0 | 0.00 | 0.00 | 0.00 | 76 | 1013.1 |
| 20260903235842 | 69 | 76 | 0.0 | 1.0 | 0.00 | 0.00 | 0.00 | 75 | 1013.0 |
| 20260903235621 | 69 | 71 | 0.0 | 0.0 | 0.00 | 0.00 | 0.00 | 74 | 1012.9 |
| 20260903234844 | 69 | 69 | 0.0 | 0.0 | 0.00 | 0.00 | 0.00 | 73 | 1012.8 |
| 20260903234341 | 69 | 72 | 0.0 | 0.0 | 0.00 | 0.00 | 0.00 | 72 | 1012.7 |
| 20260903234105 | 70 | 69 | 0.0 | 0.0 | 0.00 | 0.00 | 0.00 | 72 | 1012.8 |
| 20260903233340 | 70 | 71 | 0.0 | 0.0 | 0.00 | 0.00 | 0.00 | 72 | 1012.7 |
| 20260903232841 | 70 | 71 | 0.0 | 1.0 | 0.00 | 0.00 | 0.00 | 72 | 1012.5 |
| 20260903232340 | 70 | 71 | 0.0 | 2.0 | 0.00 | 0.00 | 0.00 | 72 | 1012.4 |
| 20260903231340 | 70 | 80 | 0.0 | 4.0 | 0.00 | 0.00 | 0.00 | 73 | 1012.3 |
| 20260903230841 | 70 | 47 | 1.0 | 4.0 | 0.00 | 0.00 | 0.00 | 73 | 1012.1 |
| 20260903230340 | 70 | 66 | 0.0 | 2.0 | 0.00 | 0.00 | 0.00 | 74 | 1012.1 |
| 20260903225840 | 70 | 73 | 0.0 | 2.0 | 0.00 | 0.00 | 0.00 | 74 | 1012.1 |
| 20260903225339 | 70 | 75 | 0.0 | 2.0 | 0.00 | 0.00 | 0.00 | 73 | 1012.1 |
| 20260903224338 | 71 | 61 | 2.0 | 3.0 | 0.00 | 0.00 | 0.00 | 74 | 1011.9 |
| 20260903224108 | 71 | 63 | 1.0 | 4.0 | 0.00 | 0.00 | 0.00 | 75 | 1011.8 |
| 20260903223338 | 71 | 76 | 1.0 | 4.0 | 0.00 | 0.00 | 0.00 | 73 | 1011.9 |
| 20260903222841 | 70 | 89 | 1.0 | 3.0 | 0.00 | 0.00 | 0.00 | 73 | 1011.8 |
| 20260903222339 | 70 | 86 | 1.0 | 3.0 | 0.00 | 0.00 | 0.00 | 74 | 1011.7 |
| 20260903221838 | 71 | 68 | 2.0 | 4.0 | 0.00 | 0.00 | 0.00 | 74 | 1011.9 |
| 20260903221338 | 71 | 45 | 2.0 | 4.0 | 0.00 | 0.00 | 0.00 | 74 | 1011.8 |
| 20260903220837 | 71 | 61 | 2.0 | 5.0 | 0.00 | 0.00 | 0.00 | 76 | 1011.8 |
| 20260903215837 | 71 | 69 | 3.0 | 6.0 | 0.00 | 0.00 | 0.00 | 78 | 1011.6 |
| 20260903215338 | 71 | 69 | 4.0 | 6.0 | 0.00 | 0.00 | 0.00 | 78 | 1011.6 |
| 20260903214838 | 71 | 79 | 3.0 | 5.0 | 0.00 | 0.00 | 0.00 | 76 | 1011.7 |
| 20260903214339 | 72 | 72 | 3.0 | 5.0 | 0.00 | 0.00 | 0.00 | 73 | 1011.8 |
| 20260903214109 | 71 | 75 | 2.0 | 4.0 | 0.00 | 0.00 | 0.00 | 75 | 1011.9 |
| 20260903213336 | 72 | 76 | 2.0 | 4.0 | 0.00 | 0.00 | 0.00 | 75 | 1011.9 |
| 20260903213112 | 72 | 73 | 2.0 | 5.0 | 0.00 | 0.00 | 0.00 | 69 | 1011.9 |
| 20260903212338 | 73 | 76 | 3.0 | 5.0 | 0.00 | 0.00 | 0.00 | 67 | 1012.0 |
| 20260903211835 | 73 | 61 | 2.0 | 4.0 | 0.00 | 0.00 | 0.00 | 65 | 1012.3 |
| 20260903211335 | 73 | 66 | 3.0 | 4.0 | 0.00 | 0.00 | 0.00 | 64 | 1012.4 |
| 20260903210837 | 73 | 89 | 2.0 | 4.0 | 0.00 | 0.00 | 0.00 | 67 | 1012.4 |
| 20260903210332 | 74 | 86 | 2.0 | 4.0 | 0.00 | 0.00 | 0.00 | 66 | 1012.5 |
| 20260903205832 | 73 | 69 | 1.0 | 3.0 | 0.00 | 0.00 | 0.00 | 64 | 1012.5 |
| 20260903205334 | 73 | 59 | 1.0 | 4.0 | 0.00 | 0.00 | 0.00 | 69 | 1012.5 |
| 20260903204834 | 73 | 41 | 2.0 | 4.0 | 0.00 | 0.00 | 0.00 | 71 | 1012.5 |
| 20260903204332 | 73 | 99 | 2.0 | 4.0 | 0.00 | 0.00 | 0.00 | 68 | 1012.7 |
| 20260903203833 | 73 | 73 | 2.0 | 4.0 | 0.00 | 0.00 | 0.00 | 69 | 1012.7 |
| 20260903203333 | 72 | 72 | 1.0 | 3.0 | 0.00 | 0.00 | 0.00 | 69 | 1012.9 |
| 20260903202833 | 72 | 69 | 2.0 | 3.0 | 0.00 | 0.00 | 0.00 | 72 | 1012.9 |
| 20260903202332 | 72 | 73 | 2.0 | 4.0 | 0.00 | 0.00 | 0.00 | 75 | 1012.9 |
| 20260903201832 | 72 | 71 | 1.0 | 4.0 | 0.00 | 0.00 | 0.00 | 76 | 1013.0 |
| 20260903201334 | 72 | 55 | 1.0 | 4.0 | 0.00 | 0.00 | 0.00 | 76 | 1013.1 |
| 20260903200831 | 72 | 51 | 1.0 | 6.0 | 0.00 | 0.00 | 0.00 | 71 | 1013.2 |
| 20260903200332 | 73 | 79 | 3.0 | 6.0 | 0.00 | 0.00 | 0.00 | 72 | 1013.3 |
| 20260903195831 | 74 | 56 | 3.0 | 5.0 | 0.00 | 0.00 | 0.00 | 70 | 1013.4 |
| 20260903195329 | 73 | 85 | 2.0 | 3.0 | 0.00 | 0.00 | 0.00 | 73 | 1013.5 |
| 20260903194829 | 72 | 72 | 2.0 | 4.0 | 0.00 | 0.00 | 0.00 | 73 | 1013.5 |
| 20260903194330 | 71 | 78 | 2.0 | 4.0 | 0.00 | 0.00 | 0.00 | 76 | 1013.6 |
| 20260903193830 | 71 | 76 | 1.0 | 3.0 | 0.00 | 0.00 | 0.00 | 76 | 1013.8 |
| 20260903193329 | 72 | 58 | 1.0 | 2.0 | 0.00 | 0.00 | 0.00 | 74 | 1013.9 |
| 20260903192824 | 72 | 55 | 1.0 | 2.0 | 0.00 | 0.00 | 0.00 | 72 | 1014.1 |
| 20260903192323 | 72 | 25 | 0.0 | 2.0 | 0.00 | 0.00 | 0.00 | 71 | 1014.1 |
| 20260903191821 | 72 | 54 | 0.0 | 3.0 | 0.00 | 0.00 | 0.00 | 72 | 1014.3 |
| 20260903191547 | 72 | 4 | 0.0 | 3.0 | 0.00 | 0.00 | 0.00 | 70 | 1014.3 |
| 20260903190816 | 72 | 21 | 0.0 | 2.0 | 0.00 | 0.00 | 0.00 | 70 | 1014.4 |
| 20260903190316 | 71 | 317 | 0.0 | 2.0 | 0.00 | 0.00 | 0.00 | 72 | 1014.3 |
| 20260903185816 | 71 | 347 | 0.0 | 2.0 | 0.00 | 0.00 | 0.00 | 71 | 1014.3 |
| 20260903185314 | 71 | 21 | 0.0 | 5.0 | 0.00 | 0.00 | 0.00 | 70 | 1014.3 |
| 20260903184813 | 71 | 34 | 1.0 | 5.0 | 0.00 | 0.00 | 0.00 | 72 | 1014.3 |
| 20260903184545 | 72 | 47 | 1.0 | 2.0 | 0.00 | 0.00 | 0.00 | 71 | 1014.2 |
| 20260903183813 | 72 | 30 | 0.0 | 3.0 | 0.00 | 0.00 | 0.00 | 69 | 1014.2 |
| 20260903183315 | 72 | 38 | 1.0 | 3.0 | 0.00 | 0.00 | 0.00 | 71 | 1014.2 |
| 20260903182811 | 72 | 341 | 1.0 | 3.0 | 0.00 | 0.00 | 0.00 | 70 | 1014.2 |
| 20260903182310 | 71 | 278 | 1.0 | 3.0 | 0.00 | 0.00 | 0.00 | 76 | 1014.2 |
| 20260903181811 | 69 | 329 | 0.0 | 3.0 | 0.00 | 0.00 | 0.00 | 78 | 1014.1 |
| 20260903181312 | 69 | 52 | 0.0 | 3.0 | 0.00 | 0.00 | 0.00 | 80 | 1014.0 |
| 20260903180811 | 69 | 307 | 0.0 | 5.0 | 0.00 | 0.00 | 0.00 | 80 | 1013.8 |
| 20260903180311 | 69 | 32 | 3.0 | 5.0 | 0.00 | 0.00 | 0.00 | 81 | 1013.8 |
| 20260903180040 | 69 | 40 | 0.0 | 4.0 | 0.00 | 0.00 | 0.00 | 81 | 1013.8 |
| 20260903175312 | 68 | 30 | 2.0 | 6.0 | 0.00 | 0.00 | 0.00 | 80 | 1013.8 |
| 20260903174812 | 69 | 337 | 2.0 | 6.0 | 0.00 | 0.00 | 0.00 | 82 | 1013.6 |
| 20260903174313 | 69 | 28 | 2.0 | 6.0 | 0.00 | 0.00 | 0.00 | 84 | 1013.5 |
| 20260903173812 | 69 | 32 | 2.0 | 6.0 | 0.00 | 0.00 | 0.00 | 82 | 1013.3 |
| 20260903173311 | 69 | 355 | 2.0 | 6.0 | 0.00 | 0.00 | 0.00 | 83 | 1013.2 |
| 20260903173038 | 69 | 18 | 3.0 | 6.0 | 0.00 | 0.00 | 0.00 | 82 | 1013.3 |
| 20260903172535 | 70 | 37 | 4.0 | 6.0 | 0.00 | 0.00 | 0.00 | 80 | 1013.3 |
| 20260903171809 | 71 | 42 | 2.0 | 4.0 | 0.00 | 0.00 | 0.00 | 80 | 1013.6 |
| 20260903171309 | 69 | 63 | 1.0 | 4.0 | 0.00 | 0.00 | 0.00 | 82 | 1013.7 |
| 20260903170808 | 68 | 30 | 0.0 | 4.0 | 0.00 | 0.00 | 0.00 | 82 | 1013.6 |
| 20260903170308 | 68 | 32 | 0.0 | 6.0 | 0.00 | 0.00 | 0.00 | 84 | 1013.4 |
| 20260903165805 | 68 | 30 | 3.0 | 6.0 | 0.00 | 0.00 | 0.00 | 84 | 1013.4 |
| 20260903165306 | 68 | 327 | 2.0 | 6.0 | 0.00 | 0.00 | 0.00 | 84 | 1013.4 |
| 20260903164805 | 69 | 54 | 2.0 | 6.0 | 0.00 | 0.00 | 0.00 | 83 | 1013.5 |
| 20260903164307 | 69 | 25 | 1.0 | 6.0 | 0.00 | 0.00 | 0.00 | 84 | 1013.3 |
| 20260903163802 | 68 | 34 | 3.0 | 9.0 | 0.00 | 0.00 | 0.00 | 84 | 1013.3 |
| 20260903163302 | 69 | 21 | 4.0 | 9.0 | 0.00 | 0.00 | 0.00 | 84 | 1013.3 |
| 20260903163033 | 68 | 4 | 2.0 | 7.0 | 0.00 | 0.00 | 0.00 | 84 | 1013.3 |
| 20260903162258 | 69 | 30 | 2.0 | 7.0 | 0.00 | 0.00 | 0.00 | 85 | 1013.3 |
| 20260903162030 | 68 | 21 | 2.0 | 7.0 | 0.00 | 0.00 | 0.00 | 84 | 1013.3 |
| 20260903161259 | 69 | 24 | 5.0 | 7.0 | 0.00 | 0.00 | 0.00 | 84 | 1013.2 |
| 20260903161033 | 68 | 121 | 0.0 | 9.0 | 0.00 | 0.00 | 0.00 | 85 | 1013.4 |
| 20260903160256 | 68 | 56 | 4.0 | 9.0 | 0.00 | 0.00 | 0.00 | 85 | 1013.4 |
| 20260903160027 | 69 | 41 | 2.0 | 9.0 | 0.00 | 0.00 | 0.00 | 82 | 1013.4 |
| 20260903155253 | 69 | 78 | 0.0 | 5.0 | 0.00 | 0.00 | 0.00 | 83 | 1013.5 |
| 20260903155021 | 69 | 114 | 0.0 | 5.0 | 0.00 | 0.00 | 0.00 | 83 | 1013.6 |
| 20260903154524 | 68 | 24 | 2.0 | 4.0 | 0.00 | 0.00 | 0.00 | 83 | 1013.5 |
| 20260903153755 | 69 | 286 | 0.0 | 7.0 | 0.00 | 0.00 | 0.00 | 83 | 1013.5 |
| 20260903153254 | 69 | 25 | 3.0 | 7.0 | 0.00 | 0.00 | 0.00 | 82 | 1013.5 |
| 20260903152754 | 69 | 31 | 2.0 | 7.0 | 0.00 | 0.00 | 0.00 | 82 | 1013.5 |
| 20260903152255 | 69 | 32 | 3.0 | 7.0 | 0.00 | 0.00 | 0.00 | 81 | 1013.5 |
| 20260903151752 | 68 | 358 | 0.0 | 6.0 | 0.00 | 0.00 | 0.00 | 84 | 1013.6 |
| 20260903151252 | 69 | 9 | 2.0 | 6.0 | 0.00 | 0.00 | 0.00 | 82 | 1013.4 |
| 20260903150751 | 69 | 27 | 3.0 | 6.0 | 0.00 | 0.00 | 0.00 | 81 | 1013.4 |
| 20260903150250 | 69 | 52 | 2.0 | 6.0 | 0.00 | 0.00 | 0.00 | 80 | 1013.4 |
| 20260903145750 | 70 | 37 | 2.0 | 6.0 | 0.00 | 0.00 | 0.00 | 78 | 1013.4 |
| 20260903145252 | 71 | 47 | 4.0 | 6.0 | 0.00 | 0.00 | 0.00 | 76 | 1013.5 |
| 20260903144821 | 71 | 126 | 1.0 | 4.0 | 0.00 | 0.00 | 0.00 | 76 | 1013.4 |
| 20260903144330 | 69 | 8 | 0.0 | 4.0 | 0.00 | 0.00 | 0.00 | 80 | 1013.4 |
| 20260903143750 | 69 | 52 | 1.0 | 5.0 | 0.00 | 0.00 | 0.00 | 80 | 1013.3 |
| 20260903143312 | 68 | 121 | 0.0 | 6.0 | 0.00 | 0.00 | 0.00 | 81 | 1013.3 |
| 20260903142849 | 69 | 12 | 2.0 | 6.0 | 0.00 | 0.00 | 0.00 | 77 | 1013.4 |
| 20260903142330 | 70 | 25 | 2.0 | 5.0 | 0.00 | 0.00 | 0.00 | 76 | 1013.5 |
| 20260903141759 | 70 | 9 | 2.0 | 4.0 | 0.00 | 0.00 | 0.00 | 74 | 1013.4 |